Flag for Brazil Weather past 2 weeks in São Paulo, São Paulo, Brazil

Now
70 °F

Partly cloudy.


Feels Like: 70 °F
Forecast: 67 / 80 °F
Wind: 5 mph from Southeast

Location: Sao Paulo Airport

Current Time: Apr 19, 2015 at 12:46:26 AM

Latest Report: Apr 19, 2015 at 12:00 AM


Visibility: 4 mi

Pressure: 30.04 "Hg

Humidity: 88%

Dew point: 66 °F

Location of São PauloLocation

Historic Weather in São Paulo — Graph

°F

São Paulo temperature yesterday

Maximum temperature yesterday: 82 °F (at 1:00 PM)
Minimum temperature yesterday: 66 °F (at 4:00 AM)
Average temperature yesterday: 74 °F

Past Weeks' High & Low Weather Summary

 TemperatureHumidityPressure
High82 °F (Apr 4, 2:00 PM)94% (Apr 7, 1:00 AM)30.24 "Hg (Apr 7, 1:00 AM)
Low57 °F (Apr 8, 2:00 AM)37% (Apr 11, 3:00 PM)29.83 "Hg (Apr 6, 2:00 AM)
Average69 °F76%30.08 "Hg
* Reported Apr 3 11:00 PM — Apr 18 11:00 PM, São Paulo, Weather by CustomWeather, © 2015

Note: Actual official high and low records may vary slightly from our data, if they occured in-between our weather recording intervals... More about our weather records

Advertising

São Paulo weather history for previous 24 hours

 ConditionsComfort  
Time TempWeatherWind HumidityBarometerVisibility
11:00 PM
Sat, Apr 18
72 °FPartly cloudy.6 mph83%30.07 "Hg4 mi
10:00 PM70 °FPartly cloudy.3 mph88%30.07 "Hg6 mi
9:00 PM72 °FPassing clouds.9 mph83%30.07 "Hg6 mi
8:00 PM77 °FClear.7 mph65%30.04 "Hg10 mi
7:00 PM77 °FClear.7 mph69%30.04 "Hg10 mi
6:00 PM79 °FClear.6 mph65%30.01 "Hg10 mi
5:00 PM81 °FClear.7 mph58%30.01 "Hg10 mi
4:00 PM81 °FPassing clouds.8 mph58%30.01 "HgN/A
3:00 PM82 °FScattered clouds.15 mph51%30.01 "HgN/A
2:00 PM82 °FBroken clouds.15 mph51%30.01 "HgN/A
1:00 PM82 °FPartly sunny.13 mph51%30.04 "HgN/A
12:00 PM81 °FPassing clouds.14 mph54%30.07 "HgN/A
11:00 AM79 °FPassing clouds.10 mph58%30.09 "HgN/A
10:00 AM75 °FSunny.7 mph65%30.09 "Hg10 mi
9:00 AM72 °FSunny.6 mph73%30.09 "Hg10 mi
8:00 AM68 °FSunny.6 mph83%30.09 "Hg10 mi
7:00 AM66 °FSunny.6 mph83%30.09 "Hg10 mi
6:00 AM66 °FSunny.3 mph83%30.07 "Hg10 mi
5:00 AM66 °FPassing clouds.7 mph83%30.04 "HgN/A
4:00 AM66 °FPassing clouds.6 mph83%30.04 "HgN/A
3:00 AM68 °FPassing clouds.5 mph83%30.04 "HgN/A
2:00 AM68 °FPassing clouds.6 mph83%30.07 "HgN/A
1:00 AM68 °FPassing clouds.6 mph78%30.09 "HgN/A
12:01 AM68 °FPassing clouds.3 mph83%30.07 "HgN/A
Weather by CustomWeather, © 2015

See weather overviewHow to use our weather pages